Location: Saint-Gilles les Bains
(21.0539°S, 55.2287°E)
Time: 08:01:30
(UTC+04:00)

Hubble Space Telescope - Pass Details

Date: 20 June 2021
Orbit: 535 x 539 km, 28.5° (Epoch: 28 July)

Event Time Altitude Azimuth Distance (km) Brightness Sun altitude
Exits shadow 05:34:16 36° 211° (SSW) 872 1.4 -18.4°
Maximum altitude 05:35:27 47° 166° (SSE) 723 1.3 -18.1°
Drops below altitude 10° 05:39:28 10° 91° (E) 1,793 4.5 -17.2°
Sets 05:41:47 0° 85° (E) 2,681 5.9 -16.7°
